Location: La B�doule
(43.2468°N, 5.5934°E)
Time: 15:25:04
(UTC+00:00)

SL-16 R/B - Pass Details

Date: 07 June 2020
Orbit: 842 x 846 km, 71.0° (Epoch: 10 July)

Event Time Altitude Azimuth Distance (km) Brightness Sun altitude
Exits shadow 02:04:53 24° 228° (SW) 1,695 3.2 -15.7°
Maximum altitude 02:08:16 57° 299° (WNW) 989 2.5 -15.3°
Drops below altitude 10° 02:13:52 10° 18° (NNE) 2,474 5.8 -14.7°
Sets 02:16:22 0° 22° (NNE) 3,414 6.9 -14.4°
